Location: Newark
(33.6333°S, 78.8500°W)
Time: 06:48:49
(UTC+00:00)

Envisat - Visible Passes

Search period start: 26 August 2019 00:00
Search period end: 05 September 2019 00:00
Orbit: 764 x 766 km, 98.1° (Epoch: 25 August)

Date Brightness Start Highest point End Pass type
(mag) Time Alt. Az. Time Alt. Az. Time Alt. Az.
26 Aug 4.9 01:08:40 10° SSW 01:13:00 28° WSW 01:17:17 10° NW visible
26 Aug 5.4 10:40:35 10° ENE 10:44:40 25° ESE 10:48:47 10° SSE visible
27 Aug 3.3 00:31:21 10° S 00:36:27 66° WSW 00:41:29 10° NNW visible
27 Aug 6.2 10:07:16 10° ESE 10:08:21 11° ESE 10:09:26 10° SE visible
27 Aug 3.1 23:54:42 10° SSE 23:59:42 51° E 00:04:39 10° N visible
28 Aug 5.7 01:35:13 10° SSW 01:38:14 16° WSW 01:41:14 10° WNW visible
28 Aug 4.3 11:05:10 10° NE 11:09:59 44° ESE 11:14:51 10° S visible
28 Aug 4.2 23:18:54 10° SE 23:22:47 21° E 23:26:37 10° NE visible
29 Aug 4.5 00:57:10 10° S 01:01:50 36° WSW 01:06:26 10° NW visible
29 Aug 5.8 10:29:56 10° ENE 10:33:31 20° ESE 10:37:08 10° SSE visible
30 Aug 3.0 00:20:04 10° S 00:25:14 85° WSW 00:30:19 10° NNW visible
30 Aug 3.4 23:43:37 10° SSE 23:48:26 39° E 23:53:11 10° NNE visible
31 Aug 5.4 01:23:26 10° SSW 01:27:06 20° WSW 01:30:46 10° WNW visible
31 Aug 4.8 10:54:13 10° NE 10:58:48 35° ESE 11:03:25 10° S visible
01 Sep 4.0 00:45:45 10° S 00:50:38 46° WSW 00:55:29 10° NW visible
01 Sep 5.9 10:19:30 10° E 10:22:24 15° ESE 10:25:18 10° SSE visible
02 Sep 2.9 00:08:50 10° SSE 00:13:59 74° ENE 00:19:03 10° N visible
02 Sep 6.1 01:50:55 10° SW 01:52:18 11° WSW 01:53:40 10° W visible
02 Sep 3.7 23:32:37 10° SE 23:37:08 30° E 23:41:35 10° NNE visible
03 Sep 5.1 01:11:48 10° SSW 01:15:58 26° WSW 01:20:07 10° WNW visible
03 Sep 5.3 10:43:23 10° NE 10:47:38 27° ESE 10:51:55 10° SSE visible
04 Sep 3.5 00:34:22 10° S 00:39:26 60° WSW 00:44:26 10° NNW visible
04 Sep 6.1 10:09:29 10° E 10:11:18 12° ESE 10:13:07 10° SE visible
